CAPE
16 25 20 2 1 5 12 11 3 0 6 8 23 35 2 2 10 0 0 0 0 0 0 0 0 0 0 0 0 0 0 0 0 0 0 0 0 0 0 0 0 0 0 0 0 0 0 0 0 0 0 0 0 0
21 12 0 1 1 1 6 12 10 1 0 8 7 30 28 5 8 0 0 0 0 0 0 0 0 0 0 0 0 0 0 0 0 0 0 0 0 0 0 0 0 0 0 0 0 0 0 0 0 0 0 0 0 0
10 0 2 6 2 0 4 14 20 9 0 3 18 27 23 8 12 0 0 0 0 0 0 0 0 0 0 0 0 0 0 0 0 0 0 0 0 0 0 0 0 0 0 0 0 0 0 0 0 0 0 0 0 0
1 4 13 10 4 8 11 6 27 11 6 6 25 31 32 16 21 0 0 0 0 0 0 0 0 0 0 0 0 0 0 0 0 0 0 0 0 0 0 0 0 0 0 0 0 0 0 0 0 0 0 0 0 0
0 9 15 15 17 18 18 20 25 8 2 21 27 32 25 6 12 0 0 0 0 0 0 0 0 0 0 0 0 0 0 0 0 0 0 0 0 0 0 0 0 0 0 0 0 0 0 0 0 0 0 0 0 0
0 7 15 19 27 50 31 32 5 7 8 18 28 37 33 25 5 0 0 0 0 0 0 0 0 0 0 0 0 0 0 0 0 0 0 0 0 0 0 0 0 0 0 0 0 0 0 0 0 0 0 0 0 0
0 8 22 13 17 22 26 20 19 28 33 28 36 63 31 6 1 0 0 0 0 0 0 0 0 0 0 0 0 0 0 0 0 0 0 0 0 0 0 0 0 0 0 0 0 0 0 0 0 0 0 0 0 0
0 1 7 14 15 19 30 26 11 18 9 13 27 44 3 5 4 0 0 0 0 0 0 0 0 0 0 0 0 0 0 0 0 0 0 0 1 0 0 0 0 0 0 0 0 0 0 0 0 0 0 0 0 0
0 0 0 5 5 24 34 7 11 7 42 33 6 4 1 0 0 9 3 2 0 0 0 0 0 0 0 0 0 0 0 0 0 0 0 1 0 1 0 0 0 0 0 0 0 0 0 0 0 0 0 0 0 0
0 0 0 6 5 12 22 33 40 1 1 1 0 0 0 1 11 0 3 17 1 0 0 0 0 0 0 0 0 0 0 0 0 0 0 0 0 0 0 1 2 1 0 0 0 0 0 0 0 3 0 2 1 1
4 1 3 17 14 26 26 2 1 1 0 0 0 0 4 9 0 0 1 0 0 0 0 0 0 0 0 0 0 0 0 0 0 0 0 0 0 0 1 0 0 0 0 0 0 0 0 1 1 0 1 1 1 1
3 2 5 8 2 2 1 0 2 1 0 0 0 1 0 0 0 0 0 0 0 0 0 0 0 0 0 0 0 0 0 0 0 0 0 0 0 0 1 1 0 0 1 1 0 1 1 1 1 0 0 0 0 0
14 2 2 3 3 3 1 2 0 0 0 0 0 0 0 0 0 0 0 0 0 0 0 0 0 0 0 0 0 0 0 0 0 0 0 0 0 1 2 1 1 0 0 1 1 1 0 0 0 0 0 0 0 0
3 0 12 4 6 5 1 0 1 0 0 0 0 0 0 0 0 0 0 0 0 0 0 0 0 0 0 0 0 0 0 0 0 0 0 0 0 2 0 1 1 0 0 0 0 0 0 0 0 0 0 0 0 0
0 1 2 3 3 0 1 0 0 0 0 0 0 0 0 0 0 0 0 0 0 0 0 0 0 0 0 0 0 0 0 0 0 0 0 0 0 0 0 1 0 0 0 0 0 0 0 0 0 0 0 1 1 0
0 0 0 4 1 0 0 0 0 0 0 0 0 0 0 0 0 0 0 0 0 0 0 0 0 0 0 0 0 0 0 0 0 0 0 0 0 0 0 0 0 0 0 0 0 0 0 0 0 0 0 0 0 0
0 0 0 0 2 0 0 0 0 0 0 0 0 0 0 0 0 0 0 0 0 0 0 0 0 0 0 0 0 0 0 0 0 0 0 0 0 0 0 0 0 0 0 0 0 0 0 0 0 0 0 0 0 0
0 0 0 0 0 1 0 0 0 0 0 0 0 0 0 0 0 0 0 0 0 0 0 0 0 0 0 0 0 0 0 0 0 0 0 0 0 0 0 0 0 0 0 0 0 0 0 0 0 0 0 0 0 0
0 0 0 0 0 0 0 0 0 0 0 0 0 0 0 0 0 0 0 0 0 0 0 0 0 0 0 0 0 0 0 0 0 0 0 0 0 0 0 0 0 0 0 0 0 0 0 0 0 0 0 0 0 0
0 0 0 0 0 0 0 0 0 0 0 0 0 0 0 0 0 0 0 0 1 0 0 0 0 0 0 0 0 0 0 0 0 0 0 0 0 0 0 0 0 0 0 0 0 0 0 0 0 0 0 0 0 0
0 0 0 0 0 0 0 0 0 0 0 0 0 0 0 1 0 0 0 0 0 0 0 0 0 0 0 0 0 0 0 0 0 0 0 0 0 0 0 0 0 0 0 0 0 0 0 0 0 0 0 0 0 0
0 0 0 0 0 0 0 0 0 0 0 0 0 1 0 0 0 0 0 0 0 0 0 0 0 0 0 0 0 0 0 0 0 0 0 0 0 0 0 0 0 0 0 0 0 0 0 0 0 0 0 0 0 0
0 0 0 0 0 0 0 0 0 0 0 0 0 0 0 0 0 0 0 0 0 0 0 0 0 0 0 0 0 0 0 0 0 0 0 0 0 0 0 0 0 0 0 0 0 0 0 0 0 0 0 0 0 0
0 0 0 0 0 0 0 0 0 0 0 0 0 0 0 0 0 0 0 0 0 0 0 0 0 0 0 0 0 0 0 0 0 0 0 0 0 0 0 0 0 0 0 0 0 0 0 0 0 0 0 0 0 0
0 0 0 0 0 0 0 0 0 0 0 0 5 5 0 1 0 0 0 0 0 0 0 0 0 0 0 0 0 0 0 0 0 0 0 0 0 0 0 0 0 1 0 2 0 0 0 0 0 0 0 0 0 0
0 0 0 0 0 0 0 0 0 0 0 0 0 0 0 0 0 0 0 0 0 0 0 1 1 0 0 1 0 0 0 0 0 0 0 1 0 0 0 0 0 0 0 0 0 0 0 0 0 0 0 0 0 0
0 0 0 0 0 0 0 0 0 0 0 0 0 0 0 0 0 0 0 0 0 0 0 2 2 1 1 0 0 0 0 0 0 0 0 0 0 0 0 0 0 0 0 0 0 0 0 0 0 0 0 0 0 0
0 0 0 0 0 0 0 0 0 0 0 0 0 0 0 0 0 0 0 0 0 0 0 0 1 0 0 0 0 0 0 0 0 0 0 0 0 0 0 0 0 0 0 0 0 0 0 0 0 0 0 0 0 0
0 0 0 0 0 0 0 0 0 0 0 0 0 0 0 0 0 0 0 0 0 0 0 0 0 0 0 0 0 0 0 0 0 0 0 0 0 0 0 0 0 0 0 0 0 0 0 0 0 0 0 0 0 0
0 0 0 0 0 0 0 0 0 0 0 0 0 0 0 0 0 0 0 0 0 0 0 0 0 0 0 0 0 0 0 0 0 0 0 0 0 0 0 0 0 0 0 0 0 0 0 0 0 0 0 0 0 0
0 0 0 0 0 0 0 0 0 0 0 0 0 0 0 0 0 0 0 0 0 0 0 0 0 0 0 0 0 0 0 0 0 0 0 0 0 0 0 0 0 0 0 0 0 0 0 0 0 0 0 0 0 0
0 0 0 0 0 0 0 0 0 0 0 0 0 0 0 0 0 0 0 0 0 0 0 0 0 0 0 0 0 0 0 0 0 0 0 0 0 0 0 0 0 0 0 0 0 0 0 0 0 0 0 0 0 0
0 0 0 0 0 0 0 0 0 0 0 0 0 0 0 0 0 0 0 0 0 0 0 0 0 0 0 0 0 0 0 0 0 0 0 0 0 0 0 0 0 0 0 0 0 0 0 0 0 0 0 0 0 0
CIN
0 -1 -6 -7 -6 -5 -8 -4 -3 0 0 0 -4 -2 -8 -3 0 0 0 0 0 0 0 0 0 0 0 0 0 0 0 0 0 0 0 0 0 0 0 0 0 0 0 0 0 0 0 0 0 0 0 0 0 0
-2 -4 0 0 0 0 0 -1 -3 -1 0 0 -2 -3 -6 -7 -7 0 0 0 0 0 0 0 0 0 0 0 0 0 0 0 0 0 0 0 0 0 0 0 0 0 0 0 0 0 0 0 0 0 0 0 0 0
-6 0 -3 -4 -2 0 -1 0 0 -4 -1 0 0 -2 -2 -3 -8 0 0 0 0 0 0 0 0 0 0 0 0 0 0 0 0 0 0 0 0 0 0 0 0 0 0 0 0 0 0 0 0 0 0 0 0 0
-3 -6 -9 -14 -11 -4 -3 -3 0 0 -3 0 0 0 0 0 -2 0 0 0 0 0 0 0 0 0 0 0 0 0 0 0 0 0 0 0 0 0 0 0 0 0 0 0 0 0 0 0 0 0 0 0 0 0
0 -6 -15 -13 -3 -37 -8 -3 0 -1 0 0 0 0 0 0 0 0 0 0 0 0 0 0 0 0 0 0 0 0 0 0 0 0 0 0 0 0 0 0 0 0 0 0 0 0 0 0 0 0 0 0 0 0
0 -10 -7 -14 -2 -3 0 0 0 -1 0 0 0 0 0 0 0 0 0 0 0 0 0 0 0 0 0 0 0 0 0 0 0 0 0 0 0 0 0 0 0 0 0 0 0 0 0 0 0 0 0 0 0 0
0 -5 -9 -5 -7 -2 -2 -2 -1 -1 0 -1 0 0 0 0 0 0 0 0 0 0 0 0 0 0 0 0 0 0 0 0 0 0 0 0 0 0 0 0 0 0 0 0 0 0 0 0 0 0 0 0 0 0
0 -3 -6 -3 -4 -3 -3 -2 -5 -1 -1 0 0 0 0 0 0 -1 0 0 0 0 0 0 0 0 0 0 0 0 0 0 -2 0 0 0 -2 0 -2 0 0 0 0 0 0 0 0 0 0 0 0 0 0 0
0 0 0 -4 -5 -5 0 -3 -4 -1 0 -3 -9 0 0 0 -2 -1 -11 -9 0 0 0 0 0 0 0 0 0 0 0 -5 0 -4 0 -3 0 -1 0 0 0 0 0 0 0 0 0 0 0 0 0 0 0 0
0 0 0 -4 -5 -5 -4 0 0 0 0 0 0 0 0 -1 -1 -6 -13 -6 -4 -2 0 0 0 0 0 0 0 0 0 0 0 0 0 0 0 0 0 0 0 0 0 0 0 0 0 0 0 -7 0 0 0 0
-6 0 0 0 0 -1 0 0 0 0 0 0 0 -1 0 -3 0 0 -2 0 0 0 0 0 0 0 0 0 0 0 0 0 0 0 0 0 0 0 0 0 0 0 0 0 0 0 0 0 0 0 0 0 0 0
-5 0 0 -1 0 -3 0 0 -7 -8 0 0 0 0 0 0 0 0 0 0 0 0 0 0 0 0 0 0 0 0 0 0 0 0 0 0 0 0 0 0 0 0 0 0 0 0 0 0 0 0 0 0 0 0
0 -1 0 -1 0 -1 -3 -15 0 0 0 0 -11 -4 0 0 0 0 0 0 0 0 0 0 0 0 0 0 0 0 0 0 0 0 0 0 0 0 0 0 0 0 0 0 0 0 0 0 0 0 0 0 0 0
0 -5 -2 -1 0 0 -2 -1 -2 -1 0 0 0 0 0 0 0 0 0 0 0 0 0 0 0 0 0 0 0 0 0 0 0 0 0 0 0 0 0 0 0 0 0 0 0 0 0 0 0 0 0 0 0 0
-1 -1 -9 -1 -1 0 0 0 -4 0 0 0 0 0 0 0 0 0 0 0 0 0 0 0 0 0 0 0 0 0 0 0 0 0 0 0 0 0 0 0 0 0 0 0 0 0 0 0 0 0 0 0 0 0
0 0 0 0 -1 0 0 0 0 0 0 0 0 0 0 0 0 0 0 0 0 0 0 0 0 0 0 0 0 0 0 0 0 0 0 0 0 0 0 0 0 0 0 0 0 0 0 0 0 0 0 0 0 0
0 0 0 -1 0 0 0 0 0 0 0 0 0 0 0 0 0 0 0 0 0 0 0 -1 -1 0 0 0 0 0 0 0 -1 0 0 0 0 0 0 0 -1 0 0 0 0 0 0 0 0 0 0 0 0 0
0 0 0 0 0 -6 0 0 0 0 0 0 0 0 0 0 0 0 0 0 0 0 -1 0 0 0 0 0 0 0 0 0 0 0 0 0 0 0 0 0 0 0 0 0 0 0 0 0 0 0 0 0 0 0
0 0 0 0 0 0 0 -2 0 0 0 -2 -4 0 -1 0 0 0 0 0 0 0 0 0 0 0 0 0 0 0 0 0 0 0 0 0 0 0 0 0 0 0 0 0 0 0 0 0 0 0 0 0 0 0
0 0 0 0 0 0 0 0 0 0 0 -1 0 0 -6 -2 0 0 0 0 -2 0 0 0 0 0 0 0 0 0 0 0 0 0 0 0 0 0 0 0 0 0 0 0 0 0 0 0 0 0 0 -1 0 0
0 0 0 0 0 0 0 0 0 0 0 0 0 -8 -13 0 0 0 0 0 0 -1 0 0 0 0 0 0 0 0 0 0 0 0 0 0 0 0 0 0 0 0 0 0 0 0 0 0 0 0 0 0 0 0
0 0 0 0 0 0 0 0 0 0 0 0 0 -5 0 0 0 0 0 0 0 0 0 0 0 0 0 0 0 0 0 0 0 0 0 0 0 0 -11 -1 0 0 0 0 0 0 0 0 0 0 0 0 0 0
0 0 0 0 0 0 0 0 0 0 0 -4 -2 0 0 0 0 0 0 0 0 0 0 0 0 0 0 0 0 0 0 0 0 0 0 0 0 0 0 0 0 0 0 0 0 0 0 0 0 0 0 0 0 0
0 0 0 0 0 0 0 0 0 0 0 0 -2 0 0 0 0 0 0 0 0 0 0 0 0 0 0 0 0 0 0 0 0 0 0 0 0 0 0 0 0 0 0 0 0 0 0 0 0 0 0 0 0 0
0 0 0 0 0 0 0 0 0 0 0 -1 -3 -9 -13 0 0 0 0 0 0 0 0 0 0 0 0 0 0 0 0 -1 -1 0 0 0 0 0 0 0 0 0 0 0 0 0 0 0 0 0 0 0 0 0
0 0 0 0 0 0 0 0 0 0 0 0 0 0 0 0 0 0 0 0 0 0 0 0 0 0 0 0 0 0 0 0 0 0 0 0 0 0 0 0 0 0 0 0 0 0 0 0 0 0 0 0 0 0
0 0 0 0 0 0 0 0 0 0 0 0 0 0 0 0 0 0 0 0 0 0 0 0 0 0 0 0 0 0 0 0 0 0 0 0 0 0 0 0 0 0 0 0 0 0 0 0 0 0 0 0 0 0
0 0 0 0 0 0 0 0 0 0 0 0 0 0 0 0 0 0 0 0 0 0 0 0 0 0 0 0 0 0 0 0 0 0 0 0 0 0 0 0 0 0 0 0 0 0 0 0 0 0 0 0 0 0
0 0 0 0 0 0 0 0 0 0 0 0 0 0 0 0 0 0 0 0 0 0 0 0 0 0 0 0 0 0 0 0 0 0 0 0 0 0 0 0 0 0 0 0 0 0 0 0 0 0 0 0 0 0
0 0 0 0 0 0 0 0 0 0 0 0 0 0 0 0 0 0 0 0 0 0 0 0 0 0 0 0 0 0 0 0 0 0 0 0 0 0 0 0 0 0 0 0 0 0 0 0 0 0 0 0 0 0
0 0 0 0 0 0 0 0 0 0 0 0 0 0 0 0 0 0 0 0 0 0 0 0 0 0 0 0 0 0 0 0 0 0 0 0 0 0 0 0 0 0 0 0 0 0 0 0 0 0 0 0 0 0
0 0 0 0 0 0 0 0 0 0 0 0 0 0 0 0 0 0 0 0 0 0 0 0 0 0 0 0 0 0 0 0 0 0 0 0 0 0 0 0 0 0 0 0 0 0 0 0 0 0 0 0 0 0
0 0 0 0 0 0 0 0 0 0 0 0 0 0 0 0 0 0 0 0 0 0 0 0 0 0 0 0 0 0 0 0 0 0 0 0 0 0 0 0 0 0 0 0 0 0 0 0 0 0 0 0 0 0
Wind_Speed
30 31 31 34 33 29 26 18 16 21 21 23 24 24 22 22 19 20 19 16 16 19 17 17 17 15 15 15 15 14 10 12 14 16 19 20 22 20 23 22 22 20 20 21 20 25 32 19 27 27 29 38 38 37
31 32 33 34 35 37 11 12 15 16 15 15 19 20 20 20 19 16 18 16 12 16 17 14 15 14 14 14 14 14 19 12 10 13 17 17 20 20 23 27 19 21 17 22 19 23 25 25 27 40 38 37 37 38
29 29 29 30 34 35 21 15 21 21 21 21 20 18 17 18 18 18 17 14 13 16 17 18 18 18 17 18 18 21 20 13 12 13 13 17 22 20 23 23 22 23 21 25 25 29 29 29 28 41 38 37 37 35
26 25 27 28 28 30 25 16 27 23 24 25 23 24 22 19 18 16 16 15 12 13 18 18 17 18 16 18 16 17 13 11 12 14 18 20 23 18 23 24 23 21 22 27 31 33 37 36 33 41 40 38 40 39
24 26 23 24 22 19 11 16 21 24 24 24 24 24 23 23 19 13 12 15 14 13 17 17 15 16 12 9 13 15 13 14 16 17 19 21 20 23 25 26 25 21 26 28 28 24 28 38 43 40 40 40 39 39
24 21 21 21 22 21 22 19 21 26 29 26 26 30 29 22 14 12 14 19 18 14 13 15 16 15 15 15 18 18 15 16 17 18 20 19 19 21 25 23 21 21 21 21 24 22 21 20 46 41 41 40 39 36
24 21 18 17 21 21 20 19 19 26 33 29 32 32 28 18 14 18 15 6 9 14 16 15 14 15 14 13 15 16 16 18 18 20 23 24 19 17 15 38 39 24 26 24 21 20 23 27 43 38 37 37 37 34
21 19 17 15 14 16 18 15 11 10 14 20 25 25 23 12 15 19 14 10 5 12 15 15 15 16 15 14 15 15 14 14 19 20 20 19 23 12 17 18 19 24 27 24 12 18 29 37 36 35 34 32 28 24
20 20 10 5 12 20 21 23 22 22 23 22 27 20 17 19 16 16 3 1 8 15 17 17 16 16 16 15 13 13 15 17 20 21 21 12 6 7 10 19 13 14 8 5 6 15 29 31 31 30 27 25 23 21
24 22 8 7 9 35 25 27 26 28 26 22 17 22 19 17 14 3 6 7 14 18 17 20 17 15 13 14 13 12 16 19 21 22 23 10 5 6 30 25 7 11 6 6 9 24 24 25 24 23 22 21 21 20
35 28 13 15 22 26 29 29 28 21 21 22 21 18 11 10 10 9 7 14 17 18 19 21 18 13 15 11 12 17 16 16 20 21 21 17 21 24 29 31 25 17 13 9 17 18 20 23 23 22 20 17 17 18
34 12 9 13 25 27 20 17 22 23 24 21 12 12 10 9 11 15 17 17 20 21 19 21 24 21 17 16 16 16 18 19 21 19 21 18 17 26 23 3 8 12 12 13 11 13 15 15 15 15 15 15 15 15
23 33 12 13 10 10 13 14 9 12 13 17 14 18 21 20 20 21 22 19 18 18 17 15 13 14 16 16 14 15 20 22 20 20 20 19 24 17 14 12 12 8 12 14 7 7 6 6 8 9 11 12 14 15
10 10 13 5 3 4 8 9 16 17 17 20 21 21 21 21 21 21 22 20 20 16 3 8 11 14 14 11 17 20 21 20 20 20 20 19 15 14 12 19 21 8 6 5 5 6 7 7 10 9 11 14 16 17
12 12 11 13 3 5 4 5 9 14 15 19 18 19 22 20 18 18 19 18 16 12 1 11 13 14 15 17 19 19 19 19 18 17 15 15 14 15 14 13 14 8 8 9 11 12 13 13 14 14 15 17 19 20
12 8 8 16 19 14 12 14 13 14 15 17 17 15 16 19 21 19 17 20 15 8 8 14 14 15 16 17 19 21 19 20 18 18 17 16 14 16 14 14 14 15 15 14 14 14 15 17 18 19 20 21 21 22
12 11 13 11 15 19 18 16 16 16 14 15 17 17 16 16 15 13 11 15 11 7 12 14 16 16 15 20 22 20 21 20 18 12 13 14 14 15 16 15 17 17 18 18 18 18 19 20 20 21 22 22 23 23
12 14 13 12 14 14 15 16 17 18 18 17 17 16 15 16 16 17 17 16 14 16 15 18 15 19 23 23 23 21 21 19 15 12 11 13 14 16 16 17 18 19 20 20 21 21 22 22 22 23 22 22 23 23
19 19 18 17 16 16 17 17 17 19 20 16 14 13 15 15 14 16 17 17 16 17 13 16 21 24 24 22 24 24 20 17 15 15 12 12 12 14 16 18 20 21 22 22 22 22 21 21 21 22 21 21 22 21
17 17 17 17 16 17 17 17 17 18 16 14 13 13 13 14 13 14 16 14 9 11 17 22 24 21 22 22 23 22 19 16 13 15 17 18 18 19 21 21 21 21 20 19 19 20 19 20 20 21 21 20 19 19
17 18 18 17 17 18 18 17 17 17 17 16 13 11 13 13 13 12 11 17 16 13 14 17 19 17 16 16 17 18 14 13 15 18 20 21 22 22 22 22 22 18 18 19 18 19 18 18 18 18 19 19 17 16
18 20 17 18 18 18 19 17 18 18 17 16 12 15 16 16 14 11 11 13 10 15 18 19 17 15 16 16 16 16 16 16 17 19 21 23 24 25 25 25 21 16 16 15 15 16 14 15 16 16 17 16 15 15
18 17 17 19 20 20 21 21 20 19 18 17 18 20 20 19 16 12 15 14 15 17 18 17 13 12 13 14 16 17 18 18 19 20 21 22 23 24 26 25 23 18 17 13 11 13 14 14 13 13 15 15 15 15
17 13 16 17 20 22 24 23 22 22 21 20 21 24 23 21 17 19 19 17 17 17 15 15 14 14 16 17 18 19 19 20 20 20 20 22 24 25 25 24 24 17 15 14 10 12 14 11 11 12 13 14 13 13
12 10 9 11 19 22 23 25 24 24 25 24 24 24 23 20 22 23 23 20 17 18 18 17 16 17 18 19 20 20 19 20 20 22 21 21 24 25 25 24 25 18 14 13 11 12 13 11 10 11 12 11 11 11
16 12 10 8 10 15 22 25 25 25 26 25 25 26 24 21 23 24 25 22 20 19 20 21 21 21 21 20 21 22 23 23 22 24 22 22 24 24 24 24 24 20 21 20 17 14 13 11 9 9 10 10 9 8
18 14 11 10 7 11 16 21 23 24 25 25 26 27 26 25 24 23 20 20 21 22 23 22 22 22 22 22 22 22 24 24 23 23 22 21 19 20 21 22 23 23 24 24 23 20 18 15 12 10 9 9 7 6
18 17 15 9 8 8 7 14 19 21 23 24 26 27 28 27 28 25 23 24 25 25 24 22 20 20 20 21 21 23 24 26 24 19 15 15 18 20 22 22 23 23 23 24 24 23 23 21 18 13 10 8 8 6
20 18 15 13 10 8 7 7 13 19 23 26 27 26 24 22 23 23 23 23 22 20 20 19 19 17 16 16 18 21 23 23 21 18 19 20 21 22 25 24 23 24 24 25 25 25 25 23 18 13 9 6 6 5
21 19 18 15 14 10 7 9 12 25 25 24 22 23 22 21 21 20 20 20 19 18 19 18 18 17 18 19 20 21 21 22 22 21 21 22 23 25 25 25 25 25 25 25 25 24 23 21 16 12 8 6 5 5
20 20 19 17 15 11 10 10 14 16 18 19 21 22 22 21 19 19 19 19 18 17 17 18 18 18 19 20 21 22 22 23 23 22 22 23 24 26 26 26 26 26 25 25 24 23 22 20 14 10 7 5 4 3
21 20 21 21 18 15 13 13 11 9 11 13 16 17 19 21 23 21 19 19 19 19 19 20 19 19 20 20 20 19 20 22 23 23 24 25 26 26 27 27 27 26 26 26 24 22 21 21 18 10 5 2 3 3
21 20 20 20 20 19 17 16 11 10 10 9 11 13 17 19 22 21 19 19 19 20 21 22 21 20 19 19 20 21 22 23 23 24 25 26 26 27 27 27 27 26 26 26 25 22 20 19 16 14 10 5 2 3
Wind_Direction
287 286 278 275 279 283 276 266 248 251 244 240 236 230 226 224 217 235 247 249 259 266 271 271 274 277 270 269 272 279 278 288 287 285 292 296 298 303 309 309 309 302 306 308 312 313 318 337 331 321 314 289 281 287
297 291 287 277 265 254 259 224 208 202 203 218 223 221 218 215 211 228 243 254 262 266 275 283 281 281 279 274 272 269 274 282 287 293 296 305 305 311 309 306 308 301 300 310 302 310 321 325 324 286 273 270 278 289
299 294 286 274 274 274 275 207 188 184 181 175 175 184 196 200 203 227 235 238 255 269 276 277 269 270 271 270 272 268 270 286 288 303 305 308 307 312 307 305 302 304 303 300 307 307 309 312 317 279 271 266 277 276
306 300 300 293 273 247 196 202 173 173 169 165 165 163 163 172 190 223 227 233 248 266 268 275 279 271 270 265 265 269 287 292 304 302 302 304 307 314 308 306 303 306 311 305 299 303 305 304 307 280 270 274 276 283
316 321 313 320 317 316 132 164 159 157 157 155 155 157 156 157 166 218 232 232 242 267 267 268 281 271 263 233 262 275 287 294 296 299 302 303 311 310 310 310 299 302 298 298 294 293 302 301 287 279 268 267 272 279
328 328 337 351 16 49 90 119 134 140 144 144 146 146 145 149 167 199 240 241 240 261 283 268 273 272 266 258 263 275 281 291 298 303 306 309 311 312 315 311 244 314 299 288 270 282 285 264 265 271 265 266 274 270
340 342 348 4 39 62 83 101 116 128 138 139 141 139 138 140 186 216 245 249 191 254 271 277 271 272 267 269 273 282 289 292 298 302 297 300 310 313 290 254 270 308 308 303 297 290 254 238 256 266 265 268 275 268
348 355 1 18 37 60 77 92 110 156 143 129 134 126 125 155 210 219 242 106 172 252 262 271 272 265 266 270 279 290 299 302 296 299 309 320 317 327 312 290 304 321 318 313 279 227 231 242 253 258 265 267 263 265
1 7 2 29 54 71 81 88 94 104 113 120 115 117 183 197 215 215 99 38 265 257 254 258 262 267 266 273 286 297 293 295 297 308 310 275 345 325 299 269 312 322 316 315 334 216 248 237 246 253 260 268 273 277
18 21 17 152 86 94 84 89 93 101 107 112 161 184 200 204 112 121 293 310 257 252 256 246 253 262 265 266 277 293 291 299 305 303 281 181 207 356 333 276 296 4 50 112 153 259 258 239 243 249 254 265 276 280
58 41 45 69 79 82 87 91 96 112 159 176 182 191 156 175 235 289 324 241 237 243 246 245 249 264 256 272 276 279 301 318 306 274 257 227 341 350 318 343 3 40 78 185 268 254 224 220 223 235 249 266 281 292
86 117 69 76 76 82 89 153 166 169 172 182 166 182 206 247 255 237 225 232 230 231 241 238 232 237 249 259 279 294 303 278 267 278 256 237 3 323 5 301 121 130 170 175 212 242 220 228 235 243 266 282 288 290
48 84 49 58 79 157 170 180 175 104 169 180 198 204 198 203 206 203 210 223 229 236 240 240 244 246 255 267 299 309 260 254 273 266 253 326 329 277 272 87 260 205 320 333 293 228 236 272 258 276 278 290 308 317
5 20 31 26 71 79 73 165 190 199 208 196 193 200 204 210 202 206 210 219 218 236 276 243 249 253 273 300 277 260 255 268 252 256 300 293 282 281 279 34 81 287 276 285 287 291 303 284 319 288 311 322 332 330
358 2 0 55 275 256 271 253 255 234 246 235 235 234 230 227 231 234 228 242 255 263 31 260 271 281 280 279 263 256 261 257 268 289 266 282 306 315 313 316 333 275 268 292 307 320 326 320 323 323 322 331 335 336
228 271 268 180 175 220 252 253 261 256 263 246 265 289 287 264 251 262 269 256 275 295 283 275 286 293 284 275 258 250 262 265 286 307 270 239 231 79 4 317 309 320 315 312 311 307 311 320 331 338 341 342 343 346
304 320 300 297 83 198 226 263 275 270 282 280 285 285 290 289 295 305 316 292 294 283 278 290 278 281 284 267 256 265 265 285 289 306 291 269 279 39 30 329 330 320 321 318 312 309 317 323 333 339 334 346 348 349
291 270 273 275 257 276 282 281 263 271 276 290 294 303 305 304 306 303 297 289 283 272 273 277 286 272 264 261 263 270 279 285 291 300 319 308 297 280 301 330 339 310 316 315 319 325 332 340 338 338 346 344 345 348
272 266 267 270 269 263 249 247 258 249 246 295 311 321 317 317 320 315 309 292 278 278 277 276 273 267 265 276 271 269 283 295 289 292 312 332 350 342 330 327 328 331 331 331 334 339 348 352 351 351 350 350 347 353
287 287 283 278 277 280 277 279 284 279 305 303 321 326 335 329 343 342 328 315 276 268 274 267 263 274 273 278 279 274 278 285 296 292 295 306 312 313 312 324 334 341 348 350 350 347 351 349 351 350 351 351 349 351
289 287 284 283 284 286 291 299 299 305 310 309 326 345 337 348 352 34 64 288 269 280 282 277 267 275 289 303 295 275 289 302 300 295 296 299 307 317 320 325 333 344 347 346 347 345 347 348 353 358 351 351 0 358
293 287 287 286 289 292 290 298 302 308 308 310 313 310 318 324 334 4 4 1 10 289 272 270 273 273 276 286 278 278 292 299 302 304 305 306 310 312 318 325 339 345 346 348 351 351 356 352 349 1 7 13 14 10
301 299 293 292 286 285 285 294 291 297 299 302 293 286 293 299 310 325 311 313 286 266 247 254 262 263 276 291 289 294 304 300 308 312 315 317 319 324 324 329 335 337 339 349 1 1 348 345 8 18 13 17 22 21
333 336 312 300 290 285 285 282 287 288 290 290 286 280 280 285 291 284 284 288 277 272 277 274 275 279 286 298 294 295 302 308 311 321 331 326 325 329 334 333 332 337 341 349 5 351 335 358 16 17 17 19 23 23
84 80 51 348 304 290 284 282 281 283 282 282 280 280 280 279 278 276 271 277 280 280 280 283 290 293 291 293 298 303 314 318 320 319 327 336 333 331 330 330 324 332 340 342 351 337 332 343 1 7 11 22 16 17
61 70 73 51 359 321 294 283 282 282 282 282 282 281 279 280 278 276 270 272 277 283 288 290 290 293 297 302 301 305 308 315 318 317 323 329 332 331 327 323 323 331 325 315 318 328 323 329 340 349 357 12 26 31
49 51 65 60 49 351 319 300 292 287 282 281 282 281 277 273 275 278 282 284 283 288 290 291 293 294 295 298 303 309 311 314 315 315 319 327 340 342 338 330 326 325 322 316 309 306 309 312 316 320 333 348 5 20
48 47 41 44 60 41 12 328 307 296 290 291 286 278 277 277 275 282 284 288 288 288 289 293 298 299 299 303 310 311 312 313 316 322 330 337 340 340 337 334 331 331 327 319 314 310 305 304 307 309 309 317 337 356
40 37 39 40 46 50 39 11 330 306 298 293 286 282 283 288 291 290 289 290 293 294 292 294 297 302 305 314 321 324 326 325 324 319 317 316 320 324 326 328 331 327 322 317 313 310 308 307 313 316 315 310 327 342
35 38 35 36 33 33 43 14 341 311 301 295 290 288 288 291 295 298 296 293 291 291 293 296 298 298 300 303 308 316 327 330 330 324 315 314 313 314 316 320 318 317 317 316 316 315 313 316 320 326 333 339 345 348
33 32 30 32 30 31 18 3 348 332 316 304 294 287 283 283 288 298 301 297 295 294 293 295 298 302 303 305 306 307 311 321 324 324 321 315 310 308 310 311 311 311 311 311 312 315 316 316 329 336 342 346 355 5
26 27 25 21 20 21 21 23 15 6 345 324 305 295 285 282 279 284 293 298 294 291 291 292 294 297 303 306 310 316 316 317 319 320 316 312 309 308 307 305 304 305 305 304 306 310 314 308 313 333 355 35 79 99
20 20 21 20 22 24 27 23 33 29 18 357 330 307 292 285 282 284 288 295 295 295 293 292 292 293 298 304 307 312 314 314 314 313 312 310 309 307 306 306 304 302 301 299 300 303 305 309 314 322 333 353 53 101